Location: Ceske Budejovice
(48.9830°N, 14.4670°E)
Time: 08:10:41
(UTC+02:00)

N. Korean satellite - Visible Passes

Search period start: 20 October 2019 00:00
Search period end: 29 October 2019 23:00
Orbit: 455 x 508 km, 97.2° (Epoch: 19 October)

Date Brightness Start Highest point End Pass type
(mag) Time Alt. Az. Time Alt. Az. Time Alt. Az.
20 Oct 7.7 06:47:44 10° NNE 06:51:17 51° E 06:54:50 10° S visible
20 Oct 9.9 19:01:32 10° SW 19:03:56 18° W 19:06:22 10° NW visible
21 Oct 9.1 06:22:46 10° NE 06:25:52 26° E 06:29:00 10° SSE visible
21 Oct 8.5 18:35:19 10° SSW 18:38:28 34° W 18:41:40 10° NNW visible
22 Oct 10.1 05:58:18 10° NE 06:00:23 15° E 06:02:28 10° SE visible
23 Oct 10.3 19:20:20 10° WSW 19:21:34 11° W 19:22:48 10° WNW visible
24 Oct 8.1 06:39:57 10° NNE 06:43:26 42° E 06:46:55 10° S visible
24 Oct 9.5 18:53:17 10° SW 18:56:01 22° W 18:58:47 10° NW visible
25 Oct 9.5 06:15:04 10° NE 06:18:00 22° E 06:20:55 10° SSE visible
25 Oct 8.0 18:27:16 10° S 18:30:33 42° W 18:33:54 10° NNW visible
26 Oct 10.3 05:50:55 10° ENE 05:52:28 12° E 05:54:01 10° ESE visible
27 Oct 7.1 05:57:16 10° NNE 06:00:55 69° ESE 06:04:35 10° S visible
27 Oct 10.0 18:11:40 10° SW 18:13:35 14° W 18:15:32 10° NW visible
28 Oct 8.6 05:32:08 10° NNE 05:35:32 34° E 05:38:56 10° SSE visible
28 Oct 9.1 17:45:05 10° SSW 17:48:03 26° W 17:51:05 10° NW visible
29 Oct 9.7 05:07:22 10° NE 05:10:03 19° E 05:12:44 10° SE visible
29 Oct 7.5 17:19:13 10° S 17:22:37 53° W 17:26:05 10° NNW visible
